Weather History for West Palm Beach, FL

Change the Weather History Date:

Tuesday, November 29, 2011

  Actual Average Record
Temperature  
Mean Temperature 67 °F 71 °F  
Max Temperature 76 °F 78 °F 89 °F (1948)
Min Temperature 57 °F 63 °F 40 °F (1966)
Degree Days  
Heating Degree Days 0 1  
Month to date heating degree days 0 8  
Since 1 July heating degree days 0 9  
Cooling Degree Days 2 6  
Month to date cooling degree days 281 237  
Year to date cooling degree days 4570 3858  
Growing Degree Days 18 (Base 50)    
Moisture  
Dew Point 59 °F    
Average Humidity 80    
Maximum Humidity 100    
Minimum Humidity 60    
Precipitation  
Precipitation 0.00 in 0.13 in 1.01 in (2007)
Month to date precipitation 1.33 4.61  
Year to date precipitation 46.99 58.81  
Snow  
Snow 0.00 in - - ()
Month to date snowfall 0.0  
Since 1 July snowfall 0.0  
Since 1 September snowfall 0.0  
Snow Depth 0.00 in    
Sea Level Pressure  
Sea Level Pressure 29.96 in    
Wind  
Wind Speed 8 mph (NW)    
Max Wind Speed 18 mph    
Max Gust Speed 22 mph    
Visibility 10 miles    
Events      
T = Trace of Precipitation, MM = Missing Value Source: NWS Daily Summary

Daily Weather History Graph

Daily Weather History Graph

Search for Another Location

Airport:

Trip Planner

Search our weather history database for the weather conditions in past years. The results will help you decide how hot, cold, wet, or windy it might be!

Date:

Astronomy

Nov. 29, 2011 Rise Set
Actual Time 6:50 AM EST 5:27 PM EST
Civil Twilight 6:25 AM EST 5:52 PM EST
Nautical Twilight 5:56 AM EST 6:20 PM EST
Astronomical Twilight 5:28 AM EST 6:48 PM EST
Moon 10:44 AM EST (11/29) 10:07 PM EST (11/29)
Length of Visible Light 11h 27m
Length of Day
10h 36m
Waxing Crescent, 24% of the Moon is Illuminated
Nov 29
Waxing Crescent
Dec 2
First Quarter
Dec 10
Full
Dec 17
Last Quarter
Dec 24
New

Hourly Weather History & Observations

Time (EST) Temp. Dew Point Humidity Pressure Visibility Wind Dir Wind Speed Gust Speed Precip Events Conditions
12:00 AM 68.0 °F 68.0 °F 100% 29.93 in 10.0 mi WNW 10.4 mph - N/A   Mostly Cloudy
12:53 AM 66.0 °F 64.0 °F 93% 29.92 in 10.0 mi NW 9.2 mph - N/A   Mostly Cloudy
1:53 AM 64.9 °F 63.0 °F 93% 29.93 in 10.0 mi NW 13.8 mph - N/A   Mostly Cloudy
2:17 AM 64.4 °F 62.6 °F 94% 29.93 in 10.0 mi NW 15.0 mph - N/A   Mostly Cloudy
2:53 AM 64.0 °F 62.1 °F 93% 29.94 in 10.0 mi NW 12.7 mph - N/A   Overcast
3:22 AM 64.4 °F 60.8 °F 88% 29.94 in 10.0 mi NW 13.8 mph - N/A   Overcast
3:53 AM 64.0 °F 61.0 °F 90% 29.95 in 10.0 mi NW 9.2 mph - N/A   Overcast
4:51 AM 64.4 °F 60.8 °F 88% 29.95 in 10.0 mi NW 10.4 mph - N/A   Overcast
4:53 AM 64.0 °F 60.1 °F 87% 29.95 in 10.0 mi NW 9.2 mph - N/A   Overcast
5:53 AM 64.9 °F 60.1 °F 84% 29.96 in 10.0 mi NNW 8.1 mph - N/A   Overcast
6:53 AM 64.9 °F 59.0 °F 81% 29.97 in 10.0 mi North 3.5 mph - N/A   Overcast
7:53 AM 66.0 °F 59.0 °F 78% 29.99 in 10.0 mi Calm Calm - N/A   Overcast
8:53 AM 68.0 °F 59.0 °F 73% 30.00 in 10.0 mi Calm Calm - N/A   Overcast
9:53 AM 69.1 °F 59.0 °F 70% 30.01 in 10.0 mi NW 4.6 mph - N/A   Overcast
10:53 AM 70.0 °F 59.0 °F 68% 30.00 in 10.0 mi West 9.2 mph - N/A   Mostly Cloudy
11:53 AM 72.0 °F 60.1 °F 66% 29.98 in 10.0 mi West 8.1 mph - N/A   Mostly Cloudy
12:53 PM 73.9 °F 59.0 °F 59% 29.95 in 10.0 mi WNW 11.5 mph - N/A   Mostly Cloudy
1:53 PM 75.0 °F 61.0 °F 62% 29.93 in 10.0 mi NNW 13.8 mph - N/A   Scattered Clouds
2:53 PM 75.0 °F 60.1 °F 60% 29.93 in 10.0 mi WNW 11.5 mph 19.6 mph N/A   Scattered Clouds
3:53 PM 73.9 °F 60.1 °F 62% 29.93 in 10.0 mi WNW 12.7 mph - N/A   Scattered Clouds
4:53 PM 71.1 °F 60.1 °F 68% 29.94 in 10.0 mi WNW 10.4 mph - N/A   Partly Cloudy
5:53 PM 66.9 °F 60.1 °F 79% 29.95 in 10.0 mi WNW 8.1 mph - N/A   Partly Cloudy
6:53 PM 64.9 °F 59.0 °F 81% 29.97 in 10.0 mi WNW 8.1 mph - N/A   Partly Cloudy
7:53 PM 63.0 °F 55.9 °F 78% 29.99 in 10.0 mi NW 6.9 mph - N/A   Partly Cloudy
8:53 PM 63.0 °F 54.0 °F 72% 30.01 in 10.0 mi NW 9.2 mph - N/A   Partly Cloudy
9:53 PM 62.1 °F 53.1 °F 72% 30.01 in 10.0 mi NNW 6.9 mph - N/A   Clear
10:53 PM 60.1 °F 53.1 °F 78% 30.02 in 10.0 mi NNW 8.1 mph - N/A   Clear
11:53 PM 57.0 °F 52.0 °F 83% 30.02 in 10.0 mi NW 5.8 mph - N/A   Clear